NOAA NWS Hourly Roundups by Site

Regional Weather Roundup for Bismarck, ND

To Select Another Site Choose from List

Select Site:  

000
ASUS43 KBIS 011510
RWRBIS

NWR BROADCAST TEXT
NATIONAL WEATHER SERVICE BISMARCK ND
1000 AM CDT THU OCT 01 2020

NOTE: "FAIR" INDICATES FEW OR NO CLOUDS BELOW 12,000 FEET WITH NO
SIGNIFICANT WEATHER AND/OR OBSTRUCTIONS TO VISIBILITY.


CITY           SKY/WX    TMP DP  RH WIND       PRES   REMARKS
WILLISTON      CLOUDY    40  33  76 NW3       30.44S
MINOT          FAIR      40  33  76 NW13      30.42S
MINOT AFB      FAIR      40  33  77 N14       30.41S
BISMARCK       CLOUDY    43  35  73 NW13      30.43R
DICKINSON      FAIR      40  31  70 NW8       30.42R
GARRISON         N/A     40  34  79 N13G20    30.42S
HETTINGER ARPT FAIR      41  33  73 NW8       30.44R
JAMESTOWN      CLOUDY    43  32  65 N14       30.35R
CARRINGTON     CLOUDY    43  32  65 N12       30.39R
HAZEN          PTSUNNY   43  37  81 N16       30.45S
MANDAN         CLOUDY    39  36  87 N14G20    30.42R
OAKES          PTSUNNY   43  34  70 N20G30    30.34R
RUGBY          FAIR      41  34  75 N13       30.39R
STANLEY        PTSUNNY   37  36  93 N9        30.43S
TIOGA          CLOUDY    36  36 100 W3        30.45S
WATFORD CITY   PTSUNNY   37  32  81 W5        30.46S
$$

CITY           SKY/WX    TMP DP  RH WIND       PRES   REMARKS
GRAND FORKS    PTSUNNY   42  32  67 N18G28    30.33R
GRAND FORKS AF PTSUNNY   43  36  75 N15G24    30.33R
DEVILS LAKE    CLOUDY    40  33  76 N14       30.37R
FARGO          CLOUDY    42  32  67 N18G26    30.31R
CANDO          FAIR      43  34  70 N12       30.40R
CAVALIER       FAIR      39  34  81 N14G22    30.34S
GRAFTON        FAIR      41  34  75 N16       30.35S
GWINNER        CLOUDY    43  36  75 N22       30.33R
ROLLA          FAIR      39  34  81 N12       30.38R
WALHALLA       CLOUDY    43  43 100 N16G22    30.35R
$$

CITY           SKY/WX    TMP DP  RH WIND       PRES   REMARKS
ABERDEEN       FAIR      48  33  56 N21G30    30.35R
MOBRIDGE       FAIR      47  35  63 NW14      30.39R
BUFFALO          N/A     43  26  51 N12       30.43R
RAPID CITY       N/A    N/A N/A N/A MISG      30.46R
GLASGOW        FAIR      37  26  64 SE6       30.41F
SIDNEY         FAIR      37  28  70 S6        30.47S
WOLF POINT     FAIR      34  26  72 CALM      30.45F
GLENDIVE       FAIR      39  28  64 S5        30.45F
MILES CITY     FAIR      36  23  59 SE9       30.44F
BAKER          FAIR      39  27  62 N3        30.46S
$$

CITY           SKY/WX    TMP DP  RH WIND       PRES   REMARKS
BILLINGS       FAIR      43  28  55 SW10      30.41F
GREAT FALLS    FAIR      47  33  58 SE3       30.32S
REGINA         PTSUNNY   41  36  81 VRB2      30.41S
ESTEVAN        CLOUDY    41  36  81 N3        30.42F
$$



 

View Past Reports for Bismarck, ND.

Products Courtesy of NOAA-NWS
NWS Information Parsing Script by Ken True at Saratoga Weather - Script by SE Lincoln Weather.